Content
SEND FEEDBACK

Daily
Averages
Monthly
Summary
United States of America

ASHEVILLE, NORTH CAROLINA


Home > North America > United States > North Carolina
Elevation: 682 meters     Latitude: 35 36N     Longitude: 082 32W

WEATHER
 
SELECT A DAY
Number of Records: 228,757;   Date Range: 1/1/95 - 9/30/14
 
SHARE

PRINT THIS DATA

[ ← Previous Day ]
WEATHER ALMANAC - 12 MARCH, 2013
[ Next Day → ]
[ °F ]   °C
Weather ElementAverageHighLow
Temperature7.6 °C12 °C (2:10 am)3.3 °C (8:54 am)
Dewpoint4.2 °C11 °C (12:44 am)-1.7 °C (5:54 pm)
Humidity81.5 %100 % (12:44 am)44 % (5:54 pm)
Barometer1011.5 hPa1016.9 hPa (9:54 pm)1007.8 hPa (2:54 am)
Wind Speed20.6 km/h37 km/h (4:54 am)
Wind Gust50.1 km/h (6:54 am)
Weather ElementAverage
Visibility13 km
Wind DirectionW (273.5 °)

Weather ElementTotal
Precipitation19.81 mm
Heating Degree Days10.7 (Base 18.3)
Averaged from 40 records on 12 March, 2013
WEATHER CONDITIONS BREAKOUT
WIND DIRECTION BREAKOUT
WEATHER BY HOUR - 12 MARCH, 2013
[ °F ]   °C
Local TimeTemperatureDewpointHumidityBarometerVisibilityWind DirectionWind SpeedGust SpeedPrecipitationEventsConditions
12:44 AM11 °C11 °C100 %1010.2 hPa11.3 kmSouth (180°)5.6 km/h3.81 mmRainLight Rain
12:51 AM11 °C11 °C100 %1009.8 hPa9.7 kmCalm3.81 mmRainLight Rain
12:54 AM11.1 °C10.6 °C97 %1008.8 hPa9.7 kmCalm3.81 mmRainLight Rain
1:14 AM11 °C11 °C100 %1009.5 hPa11.3 kmCalmRainLight Rain
1:33 AM11 °C11 °C100 %1009.1 hPa9.7 kmCalm0.51 mmRainLight Rain
1:54 AM11.1 °C10.6 °C97 %1008.1 hPa12.9 kmCalm0.51 mmRainLight Rain
2:10 AM12 °C11 °C94 %1008.8 hPa12.9 kmCalm0.51 mmRainLight Rain
2:23 AM11 °C11 °C100 %1008.5 hPa8 kmCalm0.76 mmRainLight Rain
2:54 AM11.1 °C10.6 °C97 %1007.8 hPa8 kmSouth (180°)5.6 km/h1.52 mmRainLight Rain
3:28 AM11 °C11 °C100 %1008.5 hPa8 kmWNW (290°)7.4 km/h0.76 mmRainLight Rain
3:54 AM8.9 °C7.8 °C93 %1007.8 hPa6.4 kmNNW (340°)27.8 km/h1.27 mmRainLight Rain
4:11 AM8 °C7 °C93 %1008.8 hPa8 kmNNW (340°)27.8 km/h0.51 mmRainRain
4:21 AM8 °C7 °C93 %1008.8 hPa9.7 kmNNW (340°)24.1 km/h1.02 mmRainRain
4:54 AM6.7 °C5.6 °C93 %1008.5 hPa16.1 kmNNW (330°)37 km/h46.3 km/h1.02 mmOvercast
5:22 AM6 °C5 °C93 %1009.1 hPa11.3 kmNNW (340°)33.3 km/h42.6 km/hOvercast
5:54 AM5.6 °C4.4 °C92 %1008.8 hPa11.3 kmNNW (340°)35.2 km/h46.3 km/hOvercast
6:02 AM6 °C4 °C87 %1009.5 hPa9.7 kmNNW (340°)31.5 km/h48.1 km/hOvercast
6:54 AM5 °C3.9 °C93 %1009.5 hPa16.1 kmNorth (350°)29.6 km/h50.1 km/hOvercast
7:54 AM3.9 °C2.8 °C93 %1010.5 hPa16.1 kmNNW (340°)31.5 km/h48.1 km/hOvercast
8:05 AM4 °C3 °C93 %1011.2 hPa3.2 kmNorth (350°)27.8 km/h44.4 km/hOvercast
8:54 AM3.3 °C2.2 °C93 %1012.2 hPa3.2 kmNNW (340°)29.6 km/h44.4 km/hOvercast
9:01 AM4 °C2 °C87 %1012.5 hPa16.1 kmNorth (350°)25.9 km/h40.7 km/hOvercast
9:36 AM4 °C2 °C87 %1012.9 hPa16.1 kmNorth (350°)33.3 km/h48.1 km/hOvercast
9:54 AM3.9 °C1.7 °C86 %1012.5 hPa16.1 kmNNW (340°)20.4 km/hOvercast
10:40 AM5 °C2 °C81 %1013.2 hPa16.1 kmNorth (350°)31.5 km/h46.3 km/hOvercast
10:54 AM5 °C1.1 °C76 %1012.9 hPa16.1 kmNorth (350°)22.2 km/h42.6 km/hOvercast
11:54 AM6.1 °C1.7 °C74 %1012.9 hPa16.1 kmNNW (340°)20.4 km/h31.5 km/hOvercast
12:54 PM7.2 °C2.2 °C71 %1013.2 hPa16.1 kmNNW (340°)29.6 km/h48.1 km/hMostly Cloudy
1:07 PM7 °C1 °C66 %1013.9 hPa16.1 kmNorth (360°)24.1 km/h42.6 km/hScattered Clouds
1:54 PM8.3 °C1.7 °C63 %1012.9 hPa16.1 kmNNW (330°)33.3 km/h44.4 km/hClear
2:54 PM8.9 °C1.7 °C61 %1013.2 hPa16.1 kmNorth (350°)25.9 km/h42.6 km/hClear
3:54 PM9.4 °C0.6 °C54 %1012.9 hPa16.1 kmNNW (330°)27.8 km/h35.2 km/hClear
4:54 PM10 °C0 °C50 %1013.2 hPa16.1 kmNNW (330°)24.1 km/h33.3 km/hClear
5:54 PM10 °C-1.7 °C44 %1013.5 hPa16.1 kmNorth (360°)25.9 km/hClear
6:54 PM8.9 °C-1.7 °C48 %1014.2 hPa16.1 kmNorth (360°)25.9 km/h40.7 km/hClear
7:54 PM7.2 °C-1.7 °C53 %1015.6 hPa16.1 kmNorth (350°)27.8 km/h40.7 km/hClear
8:54 PM6.1 °C-1.1 °C60 %1016.3 hPa16.1 kmNorth (350°)13 km/hClear
9:54 PM5 °C-1.1 °C65 %1016.9 hPa16.1 kmNNW (340°)11.1 km/hClear
10:54 PM5 °C-1.1 °C65 %1016.6 hPa16.1 kmNNW (330°)22.2 km/h29.6 km/hClear
11:54 PM4.4 °C-1.1 °C68 %1016.9 hPa16.1 kmNNW (330°)25.9 km/hClear
Hourly data recorded from KAVL, located 0 kilometers away from Asheville, North Carolina







STORIES FROM OUR PARTNERS